Regional Weather Roundup
Issued by NWS

Home | Current Version | Previous Version | Graphics & Text | Print | Product List | Glossary On
Versions: 1 2 3 4 5 6 7 8 9 10 11 12 13 14 15 16 17 18 19 20 21 22 23 24 25 26 27 28 29 30 31 32 33 34 35 36 37 38 39 40 41 42 43 44 45 46 47 48 49 50
000
ASUS44 KMEG 201600
RWRTN
TENNESSEE HOURLY STATE WEATHER ROUNDUP
NATIONAL WEATHER SERVICE MEMPHIS TN
1100 AM CDT MON APR 20 2015

TNZ002-004-019-021-049-052-054-088>092-201700-
WEST TENNESSEE

CITY           SKY/WX    TMP DP  RH WIND       PRES   REMARKS
MEMPHIS INTL   MOSUNNY   61  46  57 W14       29.83R
NWS MEMPHIS      N/A     58 N/A N/A MISG        N/A
JACKSON        CLOUDY    57  48  72 W15       29.78R
DYERSBURG      CLOUDY    57  37  47 W13G20    29.79R
UNION CITY     CLOUDY    55  32  41 W12       29.75R
PARIS            N/A     54  50  87 W9        29.74R
LEXINGTON      PTSUNNY   59  50  72 W13       29.75R
SAVANNAH       PTSUNNY   59  32  36 W9        29.78R
$$

TNZ008-025-027-028-033-062-065-066-201700-
NORTH MIDDLE TENNESSEE

CITY           SKY/WX    TMP DP  RH WIND       PRES   REMARKS
NASHVILLE      CLOUDY    62  53  72 SW12G21   29.72R
CLARKSVILLE    CLOUDY    56  50  80 W13       29.70R
COOKEVILLE     PTSUNNY   63  54  72 VRB7        N/A
CROSSVILLE     MOSUNNY   61  49  64 SW12G25   29.73S
$$

TNZ061-075-076-078-094-096-097-201700-
SOUTH MIDDLE TENNESSEE

CITY           SKY/WX    TMP DP  RH WIND       PRES   REMARKS
FAYETTEVILLE   PTSUNNY   63  52  67 SW14      29.76S
TULLAHOMA      PTSUNNY   64  52  63 SW15      29.75S
WINCHESTER     PTSUNNY   63  52  67 W10       29.77R
MCMINNVILLE    CLOUDY    63  54  72 SW10      29.73R
COLUMBIA       CLOUDY    61  32  33 W12       29.74R
SHELBYVILLE    CLOUDY    64  55  72 SW9       29.75R
$$

TNZ017-018-042-046-047-201700-
NORTHEAST TENNESSEE

CITY           SKY/WX    TMP DP  RH WIND       PRES   REMARKS
TRI CITIES     PTSUNNY   69  56  62 W20       29.69S
ELIZABETHTON   MOSUNNY   70  54  56 VRB7      29.68S
$$

TNZ012-013-036-069-073-074-201700-
CENTRAL EAST TENNESSEE

CITY           SKY/WX    TMP DP  RH WIND       PRES   REMARKS
KNOXVILLE      MOSUNNY   69  56  62 SW23G32   29.69R
OAK RIDGE      MOSUNNY   68  55  63 SW10G22   29.71S
GATLINBURG     MOSUNNY   73  48  40 W16       29.67S
$$

TNZ083-085-099-201700-
SOUTHEAST TENNESSEE

CITY           SKY/WX    TMP DP  RH WIND       PRES   REMARKS
CHATTANOOGA    PTSUNNY   71  56  58 W8        29.73S
$$

SKY/WX REPORTED AS FAIR MEANS FEW OR NO CLOUDS BELOW
12 THOUSAND FEET.



USA.gov is the U.S. government's official web portal to all federal, state and local government web resources and services.